Starlink 3909

operational
NORAD ID: 52452 Int'l Des: 2022-049 Owner: SPXS Country: US Constellation: starlink
LEOCIRCULAR

关于 Starlink 3909

正在加载描述...

实时位置

正在加载3D地球...

即将过境

高度历史

Altitude vs Time

uPlot chart will show altitude changes over time

两行轨道根数

1 52452U 22049B 25350.52542058 .00002157 00000-0 15357-3 0 9990
2 52452 53.2169 82.3349 0001283 87.7523 272.3616 15.08843301199550
Epoch: Dec 16, 2025 • Age: 19 hours

当前状态

高度 542.2 km
速度 7.60 km/s
星下点 38.12°N, 90.41°W
发射日期 May 6, 2022
运行时间 3.6 years
类型 internet

技术详情

分类 Payload
质量 297.00 kg
干质量 220.00 kg
总质量 297.00 kg
长度 0.20 m
直径 2.80 m
跨度 9.00 m
形状 Box + pan
制造商 SPXS
平台类型 Starlink
阶段状态 In Orbit
所有者/国家 SPXS/US

大型星座

Loading constellations...